Location: Bucharest
(44.4268°N, 26.1025°E)
Time: 17:18:56
(UTC+03:00)

SPROUT - Pass Details

Date: 30 June 2022
Orbit: 588 x 598 km, 97.9° (Epoch: 19 August)

Event Time Altitude Azimuth Distance (km) Brightness Sun altitude
Exits shadow 01:33:00 36° 105° (ESE) 949 ? -22.3°
Maximum altitude 01:33:57 42° 71° (ENE) 852 ? -22.3°
Drops below altitude 10° 01:37:53 10° 1° (N) 1,925 ? -22.3°
Sets 01:40:08 0° 354° (N) 2,832 ? -22.2°
